Phoenix, AZ

4:05 AM MST on March 28, 2017 (GMT -0700)
Phoenix Sky Harbor International

Weather History for KPHX - November, 2012

Change the Weather History Date:

Tuesday, November 27, 2012

  Actual Average Record
Temperature  
Mean Temperature 70 °F 59 °F  
Max Temperature 84 °F 70 °F 87 °F (2014)
Min Temperature 55 °F 48 °F 31 °F (1966)
Degree Days  
Heating Degree Days 0 6  
Month to date heating degree days 27 78  
Since 1 July heating degree days 27 84  
Cooling Degree Days 5 0  
Month to date cooling degree days 132 69  
Year to date cooling degree days 5060 4605  
Growing Degree Days 20 (Base 50)    
Moisture  
Dew Point 32 °F    
Average Humidity 30    
Maximum Humidity 47    
Minimum Humidity 13    
Precipitation  
Precipitation 0.00 in 0.03 in 1.29 in (1919)
Month to date precipitation 0.05 0.57  
Year to date precipitation 3.41 7.07  
Snow  
Snow 0.00 in - - ()
Month to date snowfall 0.0  
Year to date snowfall 0.0  
Since 1 July snowfall 0.0  
Snow Depth 0.00 in    
Sea Level Pressure  
Sea Level Pressure 30.06 in    
Wind  
Wind Speed 4 mph (East)    
Max Wind Speed 13 mph    
Max Gust Speed 15 mph    
Visibility 10 miles    
Events      
T = Trace of Precipitation, MM = Missing Value Source: NWS Daily Summary

Daily Weather History Graph

Daily Weather History Graph

Search for Another Location

Airport or City:

Trip Planner

Search our weather history database for the weather conditions in past years. The results will help you decide how hot, cold, wet, or windy it might be!

Date:

Astronomy

Nov. 27, 2012 Rise Set
Actual Time 7:10 AM MST 5:20 PM MST
Civil Twilight 6:43 AM MST 5:47 PM MST
Nautical Twilight 6:13 AM MST 6:18 PM MST
Astronomical Twilight 5:43 AM MST 6:48 PM MST
Moon 4:54 PM MST (11/27) 6:20 AM MST (11/27)
Length of Visible Light 11h 03m
Length of Day
10h 09m
Waxing Gibbous, 99% of the Moon is Illuminated
Nov 27
Waxing Gibbous
Nov 28
Full
Dec 6
Last Quarter
Dec 13
New
Dec 19
First Quarter

Hourly Weather History & Observations

Time (MST) Temp. Dew Point Humidity Pressure Visibility Wind Dir Wind Speed Gust Speed Precip Events Conditions
12:51 AM 59.0 °F 37.0 °F 44% 30.06 in 10.0 mi ESE 5.8 mph - N/A   Clear
1:51 AM 57.9 °F 36.0 °F 44% 30.05 in 10.0 mi East 4.6 mph - N/A   Clear
2:51 AM 57.9 °F 34.0 °F 41% 30.07 in 10.0 mi East 5.8 mph - N/A   Clear
3:51 AM 55.9 °F 35.1 °F 45% 30.06 in 10.0 mi East 4.6 mph - N/A   Clear
4:51 AM 57.0 °F 35.1 °F 44% 30.06 in 10.0 mi ESE 4.6 mph - N/A   Clear
5:51 AM 55.9 °F 33.1 °F 42% 30.09 in 10.0 mi East 4.6 mph - N/A   Partly Cloudy
6:51 AM 55.9 °F 32.0 °F 40% 30.10 in 10.0 mi ENE 3.5 mph - N/A   Scattered Clouds
7:51 AM 57.0 °F 32.0 °F 39% 30.13 in 10.0 mi East 3.5 mph - N/A   Partly Cloudy
8:51 AM 61.0 °F 32.0 °F 34% 30.14 in 10.0 mi East 5.8 mph - N/A   Partly Cloudy
9:51 AM 66.0 °F 32.0 °F 28% 30.15 in 10.0 mi East 6.9 mph - N/A   Scattered Clouds
10:51 AM 71.1 °F 32.0 °F 24% 30.14 in 10.0 mi Variable 3.5 mph - N/A   Scattered Clouds
11:51 AM 77.0 °F 28.0 °F 17% 30.10 in 10.0 mi East 10.4 mph - N/A   Mostly Cloudy
12:51 PM 80.1 °F 28.9 °F 15% 30.06 in 10.0 mi SE 6.9 mph - N/A   Mostly Cloudy
1:51 PM 82.0 °F 27.0 °F 13% 30.03 in 10.0 mi ENE 4.6 mph - N/A   Mostly Cloudy
2:51 PM 82.9 °F 27.0 °F 13% 30.01 in 10.0 mi Calm Calm - N/A   Mostly Cloudy
3:51 PM 82.4 °F 26.6 °F 13% 30.04 in 10.0 mi Calm Calm - N/A   Mostly Cloudy
4:51 PM 81.0 °F 28.0 °F 14% 30.00 in 10.0 mi Calm Calm - N/A   Mostly Cloudy
5:51 PM 77.0 °F 30.9 °F 19% 29.99 in 10.0 mi Calm Calm - N/A   Mostly Cloudy
6:51 PM 73.0 °F 30.9 °F 21% 30.00 in 10.0 mi ESE 3.5 mph - N/A   Mostly Cloudy
7:51 PM 71.1 °F 33.1 °F 25% 30.01 in 10.0 mi Calm Calm - N/A   Mostly Cloudy
8:51 PM 71.1 °F 32.0 °F 24% 30.02 in 10.0 mi Calm Calm - N/A   Mostly Cloudy
9:51 PM 66.9 °F 33.1 °F 28% 30.04 in 10.0 mi WSW 3.5 mph - N/A   Overcast
10:51 PM 66.0 °F 33.1 °F 29% 30.04 in 10.0 mi Calm Calm - N/A   Mostly Cloudy
11:51 PM 64.0 °F 33.1 °F 31% 30.04 in 10.0 mi East 3.5 mph - N/A   Mostly Cloudy